Date String (YYYY-MM-DD hh:mm:ss) UTC,Instrument flags,absolute air pressure of the measurement (hPa),sample flow rate (lpm),inlet stack bypass flow (lpm),air temperature of the measurement (°C),ambient temperature measured by the external sensor (°C),aerosol sample conditioner tube jacket temperature (°C),OPC LED temperature (°C),internal box temperature (°C),relative humidity of the measurement (%),span deviation,mass concentration of particles derived from Lorenz-Mie calculation of OPC scattering (μg/m³),mass concentration of particles derived from Lorenz-Mie calculation of OPC scattering (μg/m³),mass concentration of particles derived from Lorenz-Mie calculation of OPC scattering (μg/m³)
DateTimeUTC,F1_M11,P_M11,Q1_M11,Q2_M11,T1_M11,T2_M11,T3_M11,T4_M11,T5_M11,U1_M11,ZSPAN_M11,X0_M11,X2_M11,X1_M11
2024-06-16 05:00:00,SystemResetWarning,0824.8,5.00,000.00,029.7,029.2,000.0,037.9,031.5,017.4,0000.0,0012.17,0005.64,0004.86
2024-06-16 05:01:00,SystemResetWarning,0824.8,5.00,000.00,029.8,029.3,000.0,037.9,031.6,017.2,0000.0,0012.32,0005.69,0004.87
2024-06-16 05:02:00,SystemResetWarning,0824.9,5.01,000.00,029.8,029.3,000.0,038.0,031.6,017.3,0000.0,0012.47,0005.72,0004.87
2024-06-16 05:03:00,SystemResetWarning,0824.9,5.00,000.00,029.9,029.4,000.0,038.0,031.7,017.2,0000.0,0012.88,0005.73,0004.88
2024-06-16 05:04:00,SystemResetWarning,0824.9,5.01,000.00,029.9,029.5,000.0,038.0,031.8,017.2,0000.0,0013.89,0005.73,0004.87
2024-06-16 05:05:00,SystemResetWarning,0824.9,5.00,000.00,030.0,029.6,000.0,038.1,031.8,017.2,0000.0,0015.30,0005.71,0004.87
2024-06-16 05:06:00,SystemResetWarning,0824.8,5.00,000.00,030.0,029.4,000.0,038.1,031.7,017.1,0000.0,0015.09,0005.69,0004.86
2024-06-16 05:07:00,SystemResetWarning,0824.7,4.99,000.00,029.7,027.2,000.0,038.2,030.6,017.3,0000.0,0014.47,0005.66,0004.86
2024-06-16 05:08:00,SystemResetWarning,0824.7,5.02,000.00,029.4,026.4,000.0,038.2,030.2,017.7,0000.0,0013.76,0005.72,0004.87
2024-06-16 05:09:00,SystemResetWarning,0824.8,4.99,000.00,029.3,026.7,000.0,038.1,030.3,017.8,0000.0,0013.74,0005.75,0004.89
2024-06-16 05:10:00,SystemResetWarning,0824.9,5.00,000.00,029.3,027.1,000.0,038.0,030.6,017.9,0000.0,0014.07,0005.75,0004.90
2024-06-16 05:11:00,SystemResetWarning,0824.9,5.01,000.00,029.3,027.5,000.0,037.9,030.8,017.9,0000.0,0014.37,0005.77,0004.91
2024-06-16 05:12:00,SystemResetWarning,0824.9,5.00,000.00,029.3,027.8,000.0,037.9,030.9,017.8,0000.0,0014.48,0005.80,0004.92
2024-06-16 05:13:00,SystemResetWarning,0824.9,4.99,000.00,029.4,028.1,000.0,037.9,031.0,017.7,0000.0,0015.40,0005.89,0004.95
2024-06-16 05:14:00,SystemResetWarning,0824.9,5.00,000.00,029.4,028.3,000.0,037.8,031.1,017.7,0000.0,0015.10,0005.93,0004.97
2024-06-16 05:15:00,SystemResetWarning,0824.9,5.00,000.00,029.5,028.5,000.0,037.8,031.2,017.6,0000.0,0013.96,0005.94,0004.99
2024-06-16 05:16:00,SystemResetWarning,0824.9,5.01,000.00,029.5,028.7,000.0,037.8,031.3,017.5,0000.0,0012.45,0005.99,0005.02
2024-06-16 05:17:00,SystemResetWarning,0824.9,4.99,000.00,029.6,028.9,000.0,037.9,031.4,017.4,0000.0,0012.07,0006.03,0005.05
2024-06-16 05:18:00,SystemResetWarning,0824.9,5.00,000.00,029.7,029.0,000.0,037.9,031.4,017.3,0000.0,0012.71,0006.12,0005.07
2024-06-16 05:19:00,SystemResetWarning,0824.9,5.00,000.00,029.7,029.1,000.0,037.9,031.5,017.3,0000.0,0012.91,0006.16,0005.09
2024-06-16 05:20:00,SystemResetWarning,0824.9,5.00,000.00,029.8,029.2,000.0,038.0,031.6,017.3,0000.0,0013.67,0006.15,0005.11
2024-06-16 05:21:00,SystemResetWarning,0824.9,5.00,000.00,029.8,029.3,000.0,038.0,031.6,017.1,0003.1,0013.77,0006.19,0005.12
2024-06-16 05:22:00,SystemResetWarning,0824.9,5.00,000.00,029.9,029.3,000.0,038.0,031.7,017.0,0003.7,0014.26,0006.24,0005.15
2024-06-16 05:23:00,SystemResetWarning,0824.9,5.00,000.00,029.9,029.4,000.0,038.1,031.7,016.9,0001.9,0014.38,0006.25,0005.17
2024-06-16 05:24:00,SystemResetWarning,0824.9,5.00,000.00,030.0,029.5,000.0,038.1,031.8,016.9,0002.1,0013.69,0006.19,0005.16
2024-06-16 05:25:00,SystemResetWarning,0824.9,5.00,000.00,030.0,029.5,000.0,038.1,031.8,016.9,0002.7,0013.35,0006.12,0005.15
2024-06-16 05:26:00,SystemResetWarning,0824.9,5.00,000.00,030.1,029.6,000.0,038.2,031.9,016.9,0002.6,0013.96,0006.15,0005.15
2024-06-16 05:27:00,SystemResetWarning,0824.9,5.00,000.00,030.1,029.6,000.0,038.2,031.9,016.9,0002.3,0014.97,0006.13,0005.16
2024-06-16 05:28:00,SystemResetWarning,0824.9,4.99,000.00,030.1,029.3,000.0,038.3,031.7,016.8,0002.3,0015.15,0006.09,0005.15
2024-06-16 05:29:00,SystemResetWarning,0824.8,5.00,000.00,029.8,027.0,000.0,038.3,030.5,017.2,0002.3,0015.32,0006.08,0005.15
2024-06-16 05:30:00,SystemResetWarning,0824.8,5.02,000.00,029.4,026.4,000.0,038.3,030.2,017.5,0002.4,0015.06,0006.02,0005.16
2024-06-16 05:31:00,SystemResetWarning,0824.7,5.00,000.00,029.3,026.8,000.0,038.2,030.3,017.8,0001.8,0015.21,0006.04,0005.16
2024-06-16 05:32:00,SystemResetWarning,0824.7,4.99,000.00,029.3,027.2,000.0,038.1,030.6,017.7,0000.7,0015.51,0006.01,0005.16
2024-06-16 05:33:00,SystemResetWarning,0824.7,4.99,000.00,029.4,027.5,000.0,038.0,030.8,017.7,0000.0,0016.73,0006.00,0005.15
2024-06-16 05:34:00,SystemResetWarning,0824.8,5.01,000.00,029.4,027.9,000.0,038.0,031.0,017.8,0000.0,0016.75,0005.99,0005.15
2024-06-16 05:35:00,SystemResetWarning,0824.8,5.01,000.00,029.4,028.1,000.0,037.9,031.1,017.7,0000.4,0017.22,0006.04,0005.16
2024-06-16 05:36:00,SystemResetWarning,0824.8,5.00,000.00,029.5,028.4,000.0,037.9,031.2,017.5,0000.0,0017.54,0006.07,0005.18
2024-06-16 05:37:00,SystemResetWarning,0824.8,5.00,000.00,029.5,028.6,000.0,037.9,031.3,017.5,0000.0,0017.32,0006.05,0005.19
2024-06-16 05:38:00,SystemResetWarning,0824.8,5.00,000.00,029.6,028.7,000.0,037.9,031.3,017.5,0000.2,0016.66,0006.04,0005.19
2024-06-16 05:39:00,SystemResetWarning,0824.8,5.00,000.00,029.6,028.9,000.0,037.9,031.4,017.7,0002.0,0016.17,0006.08,0005.21
2024-06-16 05:40:00,SystemResetWarning,0824.8,4.99,000.00,029.7,029.0,000.0,037.9,031.5,017.8,0000.7,0015.69,0006.13,0005.22
2024-06-16 05:41:00,SystemResetWarning,0824.8,5.00,000.00,029.8,029.1,000.0,038.0,031.5,017.6,0000.0,0015.71,0006.14,0005.21
2024-06-16 05:42:00,SystemResetWarning,0824.8,5.00,000.00,029.8,029.2,000.0,038.0,031.6,017.6,0000.0,0016.01,0006.13,0005.21
2024-06-16 05:43:00,SystemResetWarning,0824.8,5.00,000.00,029.8,029.3,000.0,038.0,031.7,017.5,0000.0,0014.81,0006.11,0005.22
2024-06-16 05:44:00,SystemResetWarning,0824.8,5.00,000.00,029.9,029.4,000.0,038.0,031.7,017.6,0000.0,0013.44,0006.09,0005.22
2024-06-16 05:45:00,SystemResetWarning,0824.8,5.00,000.00,030.0,029.4,000.0,038.1,031.7,017.5,0000.0,0012.57,0006.07,0005.21
2024-06-16 05:46:00,SystemResetWarning,0824.8,5.01,000.00,030.0,029.5,000.0,038.1,031.8,017.5,0000.0,0012.01,0006.07,0005.21
2024-06-16 05:47:00,SystemResetWarning,0824.8,5.01,000.00,030.0,029.6,000.0,038.1,031.8,017.4,0000.0,0011.82,0006.07,0005.21
2024-06-16 05:48:00,SystemResetWarning,0824.8,5.00,000.00,030.1,029.6,000.0,038.2,031.9,017.4,0000.0,0011.98,0006.10,0005.21
2024-06-16 05:49:00,SystemResetWarning,0824.7,5.00,000.00,030.1,029.7,000.0,038.2,031.9,017.4,0000.0,0012.92,0006.16,0005.22
2024-06-16 05:50:00,SystemResetWarning,0824.8,5.00,000.00,030.2,029.7,000.0,038.3,031.9,017.4,0000.0,0013.08,0006.23,0005.22
2024-06-16 05:51:00,SystemResetWarning,0824.7,4.97,000.00,030.0,027.9,000.0,038.3,031.0,017.5,0000.0,0013.07,0006.20,0005.22
2024-06-16 05:52:00,SystemResetWarning,0824.7,5.02,000.00,029.6,026.4,000.0,038.3,030.4,017.9,0000.0,0013.29,0006.19,0005.23
2024-06-16 05:53:00,SystemResetWarning,0824.7,5.00,000.00,029.4,026.6,000.0,038.3,030.4,018.1,0000.0,0013.80,0006.19,0005.23
2024-06-16 05:54:00,SystemResetWarning,0824.7,4.99,000.00,029.4,027.0,000.0,038.2,030.6,018.1,0000.0,0015.28,0006.24,0005.23
2024-06-16 05:55:00,SystemResetWarning,0824.8,5.00,000.00,029.4,027.4,000.0,038.1,030.8,018.1,0001.3,0015.82,0006.27,0005.25
2024-06-16 05:56:00,SystemResetWarning,0824.7,5.00,000.00,029.4,027.7,000.0,038.0,030.9,018.1,0003.2,0016.18,0006.33,0005.28
2024-06-16 05:57:00,SystemResetWarning,0824.8,5.01,000.00,029.5,028.0,000.0,038.0,031.1,018.1,0001.4,0016.14,0006.34,0005.29
2024-06-16 05:58:00,SystemResetWarning,0824.8,5.00,000.00,029.5,028.3,000.0,038.0,031.2,018.1,0000.0,0016.06,0006.34,0005.31
2024-06-16 05:59:00,SystemResetWarning,0824.8,5.00,000.00,029.6,028.5,000.0,037.9,031.3,017.8,0000.0,0016.02,0006.34,0005.31
